RJBBFJDG

Guest
Details From RJBB - Kansai Intl
To FJDG - Diego Garcia Nsf
Flight Number -
Tags Generated
Created
Modified
Stats Distance 4,350 nm / 8,057 km
Max Altitude 0 ft / 0 m
Waypoints 6
Social Downloads 0
Likes 0
Share VATSIM

Download

Looking for another format? Having issues loading an existing format? Contact us
Advertisement - Login to hide

Notes

Generated

Route

RJBB R1742 YIN PANDA R2472 FJDG

ID Type Via Altitude Latitude Longitude Leg Dist Tot Dist Heading (true) Name
O RJBB APT - 0 ft / 0 m 34.41738˚ 135.22928˚ - 0 nm - -
R1742 FIX - 0 ft / 0 m 32.83151˚ 130.84058˚ 239 nm 239 nm 248° / 245° -
YIN VOR - 0 ft / 0 m 24.20667˚ 113.41000˚ 1053 nm 1292 nm 245° / 237° YINGDE VOR-DME
PANDA FIX - 0 ft / 0 m 15.45804˚ 100.28254˚ 907 nm 2200 nm 237° / 233° -
R2472 FIX - 0 ft / 0 m -7.30457˚ 72.39700˚ 2149 nm 4350 nm 232° / 230° -
O FJDG APT - 0 ft / 0 m -7.30457˚ 72.39700˚ 0 nm 4350 nm 0° / 180° -

Altitude Profile

Advertisement - Login to hide

Weather


0- 5 10 15 20 25 30 35+ Temperature / ° C

Clouds and Precipitation
Forecast for 2018-05-20 12:00 UTC. Updated 3 hours ago

Ground ~20,000 ft ~40,000 ft Winds

RJBB

Details ICAO RJBB (KIX)
Name KANSAI INTL
Region Japan
Timezone Asia/Tokyo (UTC+9.0)
Stats Elevation 26 ft / 8 m (AMSL)
Location 34.433619° 135.233598°
Runways 2
Magnetic Variation 7.610° W

METAR

RJBB 201400Z AUTO 21008KT 9999 NCD 17/14 Q1020 NOSIG

Decode

TAF

TAF AMD RJBB 201404Z 2014/2118 22006KT 9999 FEW030 BECMG 2015/2017 07008KT BECMG 2103/2106 24012KT BECMG 2112/2115 07008KT

Decode

Departure Runways

ID Width Length Bearing (true) Bearing (mag) Surface Threshold Offset Overrun Length
06L 200 ft / 61 m 13,121 ft / 3,999 m 50.86° 58.47° Asphalt 0 ft / 0 m 200 ft / 61 m
06R 200 ft / 61 m 11,481 ft / 3,499 m 50.86° 58.47° Asphalt 0 ft / 0 m 200 ft / 61 m
24L 200 ft / 61 m 11,481 ft / 3,499 m 230.88° 238.49° Asphalt 0 ft / 0 m 200 ft / 61 m
24R 200 ft / 61 m 13,121 ft / 3,999 m 230.88° 238.49° Asphalt 0 ft / 0 m 200 ft / 61 m

FJDG

Details ICAO FJDG
Name DIEGO GARCIA NSF
Region British Indian Ocean Territory
Timezone Indian/Chagos (UTC+6.0)
Stats Elevation 9 ft / 3 m (AMSL)
Location -7.313268° 72.411090°
Runways 1
Magnetic Variation 6.618° W

METAR

FJDG 201355Z 12010KT 9999 FEW020 FEW070 SCT230 28/25 A2980 RMK SLP088 T02750253

Decode

TAF

TAF TAF FJDG 200900Z 2009/2115 13009KT 9999 FEW020 SCT080 BKN200 QNH2975INS TX30/2106Z TN25/2022Z

Decode

Destination Runways

ID Width Length Bearing (true) Bearing (mag) Surface Threshold Offset Overrun Length
13 200 ft / 61 m 12,015 ft / 3,662 m 121.89° 128.51° Concrete 0 ft / 0 m 950 ft / 290 m
31 200 ft / 61 m 12,015 ft / 3,662 m 301.88° 308.50° Concrete 0 ft / 0 m 950 ft / 290 m

Approach Navaids

Runway Type Ident Frequency Range Bearing (true) Bearing (mag) Slope Elevation
31 Localiser INKW 109.30 MHz 18 nm / 33 km 301.84° 308.46° - 9 ft / 3 m (AMSL)
31 Glidescope INKW 109.30 MHz 10 nm / 19 km 301.89° 308.50° 3.00° 9 ft / 3 m (AMSL)